N1VL Weather Reports


time (UTC)temp
C
wind
direction
speed
KPH
gust
KPH
rain 1hr
cm
rain 24hr
cm
rain mn
cm
humidity
%
barometer
mb
20260507132703 7 90 4.8 8.0 0.00 0.00 0.00 56 1021.9
20260507131803 7 90 4.8 9.7 0.00 0.00 0.00 56 1021.9
20260507130903 6 94 6.4 9.7 0.00 0.00 0.00 55 1021.8
20260507130003 6 96 3.2 8.0 0.00 0.00 0.00 55 1021.8
20260507125403 6 96 3.2 6.4 0.00 0.00 0.00 55 1021.8
20260507124524 5 96 3.2 6.4 0.00 0.00 0.00 56 1021.8
20260507123603 5 96 3.2 11.3 0.00 0.00 0.00 56 1021.7
20260507122705 5 73 4.8 11.3 0.00 0.00 0.00 56 1021.6
20260507121803 6 72 6.4 9.7 0.00 0.00 0.00 56 1021.4
20260507120903 6 95 4.8 8.0 0.00 0.00 0.00 56 1021.4
20260507120024 6 102 4.8 8.0 0.00 0.00 0.00 56 1021.4
20260507115403 6 102 3.2 8.0 0.00 0.00 0.00 57 1021.4
20260507114503 6 102 4.8 8.0 0.00 0.00 0.00 57 1021.5
20260507113624 6 101 6.4 8.0 0.00 0.00 0.00 58 1021.5
20260507112703 6 83 4.8 8.0 0.00 0.00 0.00 58 1021.5
20260507111803 6 78 4.8 8.0 0.00 0.00 0.00 58 1021.4
20260507110903 6 77 4.8 8.0 0.00 0.00 0.00 58 1021.4
20260507110024 6 78 6.4 8.0 0.00 0.00 0.00 58 1021.4
20260507105403 6 78 4.8 8.0 0.00 0.00 0.00 58 1021.5
20260507104503 6 78 6.4 8.0 0.00 0.00 0.00 58 1021.6
20260507103603 6 78 3.2 8.0 0.00 0.00 0.00 58 1021.6
20260507102703 6 78 3.2 6.4 0.00 0.00 0.00 58 1021.6
20260507101803 6 78 4.8 8.0 0.00 0.00 0.00 58 1021.8
20260507100903 6 78 4.8 8.0 0.00 0.00 0.00 58 1021.9
20260507100003 6 89 6.4 9.7 0.00 0.00 0.00 58 1021.9
20260507095403 6 96 6.4 8.0 0.00 0.00 0.00 58 1022.0
20260507094503 6 96 4.8 6.4 0.00 0.00 0.00 58 1022.0
20260507093603 6 96 4.8 8.0 0.00 0.00 0.00 58 1022.1
20260507092724 6 96 4.8 8.0 0.00 0.03 0.00 58 1022.2
20260507091803 6 96 8.0 9.7 0.00 0.15 0.00 58 1022.1
20260507090903 6 107 8.0 9.7 0.00 0.20 0.00 58 1022.2
20260507090003 6 109 6.4 8.0 0.00 0.20 0.00 58 1022.3
20260507085403 6 109 6.4 8.0 0.00 0.23 0.00 58 1022.3
20260507084503 7 109 4.8 8.0 0.00 0.23 0.00 58 1022.3
20260507083603 7 109 4.8 8.0 0.00 0.23 0.00 58 1022.3
20260507082703 7 114 6.4 8.0 0.00 0.23 0.00 58 1022.3
20260507081824 7 115 4.8 6.4 0.00 0.23 0.00 58 1022.5
20260507080903 7 115 3.2 6.4 0.00 0.23 0.00 57 1022.6
20260507080003 7 115 3.2 6.4 0.00 0.23 0.00 56 1022.6
20260507075403 7 115 4.8 8.0 0.00 0.23 0.00 55 1022.6
20260507074503 7 115 6.4 8.0 0.00 0.23 0.00 54 1022.5
20260507073603 7 115 4.8 8.0 0.00 0.23 0.00 54 1022.7
20260507072703 8 116 4.8 8.0 0.00 0.23 0.00 53 1022.8
20260507071803 8 116 6.4 8.0 0.00 0.23 0.00 53 1022.8
20260507070924 8 117 6.4 8.0 0.00 0.23 0.00 53 1022.8
20260507070005 8 120 4.8 8.0 0.00 0.23 0.00 53 1022.8
20260507065403 8 120 4.8 8.0 0.00 0.23 0.00 53 1022.9
20260507064524 8 120 4.8 8.0 0.00 0.23 0.00 53 1022.8
20260507063603 8 120 6.4 9.7 0.00 0.23 0.00 52 1022.7
20260507062703 8 119 6.4 9.7 0.00 0.23 0.00 51 1022.7
20260507061803 8 89 6.4 9.7 0.00 0.23 0.00 49 1022.7
20260507060924 9 74 6.4 9.7 0.00 0.23 0.00 48 1022.6
20260507060024 9 71 8.0 9.7 0.00 0.23 0.00 47 1022.5
20260507055403 9 78 8.0 11.3 0.00 0.23 0.23 47 1022.5
20260507054503 9 97 6.4 11.3 0.00 0.23 0.23 47 1022.5
20260507053603 9 109 4.8 8.0 0.00 0.23 0.23 47 1022.5
20260507052703 10 109 4.8 12.9 0.00 0.23 0.23 47 1022.4
20260507051803 10 126 6.4 12.9 0.00 0.23 0.23 46 1022.3
20260507050903 10 97 8.0 12.9 0.00 0.23 0.23 45 1022.4
20260507050003 10 88 6.4 9.7 0.00 0.23 0.23 44 1022.4
20260507045403 10 75 4.8 9.7 0.00 0.23 0.23 43 1022.4
20260507044503 11 115 6.4 11.3 0.00 0.23 0.23 42 1022.4
20260507043624 11 86 6.4 11.3 0.00 0.23 0.23 40 1022.2
20260507042724 12 38 11.3 17.7 0.00 0.23 0.23 38 1022.0
20260507041803 12 33 11.3 17.7 0.00 0.23 0.23 38 1022.0
20260507040903 11 52 8.0 11.3 0.00 0.23 0.23 39 1022.1
20260507040003 11 100 6.4 12.9 0.00 0.23 0.23 40 1022.1
20260507035403 11 95 8.0 14.5 0.00 0.23 0.23 41 1022.2
20260507034503 10 330 6.4 14.5 0.00 0.23 0.23 43 1022.1
20260507033603 11 280 3.2 8.0 0.00 0.23 0.23 42 1021.9
20260507032724 11 237 4.8 6.4 0.00 0.23 0.23 38 1021.6
20260507031824 11 220 6.4 9.7 0.00 0.23 0.23 37 1021.5
20260507030903 12 216 8.0 9.7 0.00 0.23 0.23 36 1021.5
20260507030024 12 218 8.0 9.7 0.00 0.23 0.23 36 1021.5
20260507025403 12 223 4.8 9.7 0.00 0.23 0.23 35 1021.6
20260507024503 13 219 6.4 9.7 0.00 0.23 0.23 33 1021.4
20260507023624 13 208 8.0 9.7 0.00 0.23 0.23 32 1021.4
20260507022703 14 230 6.4 9.7 0.00 0.23 0.23 30 1021.3
20260507021803 15 269 6.4 11.3 0.00 0.23 0.23 29 1021.3
20260507020903 15 299 9.7 14.5 0.00 0.23 0.23 29 1021.3
20260507020003 16 291 9.7 17.7 0.00 0.23 0.23 29 1021.2
20260507015403 16 297 11.3 17.7 0.00 0.23 0.23 27 1021.3
20260507014503 16 287 12.9 22.5 0.00 0.23 0.23 28 1021.3
20260507013624 16 290 14.5 22.5 0.00 0.23 0.23 27 1021.3
20260507012703 17 300 14.5 20.9 0.00 0.23 0.23 27 1021.3
20260507011803 17 284 12.9 22.5 0.00 0.23 0.23 27 1021.3
20260507010903 17 287 14.5 25.7 0.00 0.23 0.23 27 1021.4
20260507010003 17 288 16.1 25.7 0.00 0.23 0.23 26 1021.4
20260507005424 17 298 17.7 29.0 0.00 0.23 0.23 27 1021.3
20260507004524 17 291 16.1 29.0 0.00 0.23 0.23 25 1021.3
20260507003603 17 301 19.3 32.2 0.00 0.23 0.23 26 1021.3
20260507002703 17 297 19.3 32.2 0.00 0.23 0.23 26 1021.3
20260507001803 17 294 17.7 25.7 0.00 0.23 0.23 26 1021.3
20260507000903 17 297 17.7 25.7 0.00 0.23 0.23 28 1021.3
20260507000003 17 285 19.3 35.4 0.00 0.23 0.23 27 1021.2
20260506235403 17 296 17.7 30.6 0.00 0.23 0.23 27 1021.1
20260506234503 17 289 17.7 30.6 0.00 0.23 0.23 28 1021.1
20260506233624 17 286 20.9 38.6 0.00 0.23 0.23 28 1021.1
20260506232724 17 267 19.3 38.6 0.00 0.23 0.23 27 1021.1
20260506231803 17 283 24.1 38.6 0.00 0.23 0.23 28 1021.1
20260506230903 17 272 20.9 61.2 0.00 0.23 0.23 29 1021.1
20260506230003 16 268 24.1 61.2 0.00 0.23 0.23 29 1021.0
20260506225424 16 278 27.4 61.2 0.00 0.23 0.23 29 1021.0
20260506224503 16 279 24.1 45.1 0.00 0.23 0.23 29 1021.1
20260506223603 16 271 25.7 43.5 0.00 0.23 0.23 29 1021.1
20260506222703 17 283 27.4 43.5 0.00 0.23 0.23 29 1021.2
20260506221803 16 264 24.1 45.1 0.00 0.23 0.23 29 1021.2
20260506220903 16 276 27.4 45.1 0.00 0.23 0.23 29 1021.3
20260506220003 16 275 24.1 43.5 0.00 0.23 0.23 29 1021.2
20260506215403 16 271 27.4 43.5 0.00 0.23 0.23 28 1021.4
20260506214503 16 280 29.0 43.5 0.00 0.23 0.23 30 1021.4
20260506213603 16 277 27.4 41.8 0.00 0.23 0.23 29 1021.3
20260506212703 16 275 27.4 46.7 0.00 0.23 0.23 30 1021.3
20260506211803 16 270 27.4 46.7 0.00 0.23 0.23 28 1021.5
20260506210903 15 267 29.0 48.3 0.00 0.23 0.23 28 1021.2
20260506210003 16 274 32.2 49.9 0.00 0.23 0.23 29 1021.2
20260506205403 16 275 35.4 49.9 0.00 0.23 0.23 30 1021.1
20260506204503 16 287 33.8 48.3 0.00 0.23 0.23 29 1021.2
20260506203624 16 283 33.8 49.9 0.00 0.23 0.23 29 1021.2
20260506202724 15 268 32.2 49.9 0.00 0.23 0.23 27 1021.3
20260506201824 15 276 30.6 49.9 0.00 0.23 0.23 28 1021.2
20260506200903 15 281 29.0 49.9 0.00 0.23 0.23 28 1021.2
20260506200003 15 272 33.8 49.9 0.00 0.23 0.23 28 1021.3
20260506195403 15 285 29.0 48.3 0.00 0.23 0.23 27 1021.4
20260506194524 15 288 27.4 43.5 0.00 0.23 0.23 30 1021.5
20260506193603 15 280 29.0 43.5 0.00 0.23 0.23 29 1021.4
20260506192703 15 291 25.7 45.1 0.00 0.23 0.23 29 1021.4
20260506191803 15 282 27.4 40.2 0.00 0.23 0.23 29 1021.4
20260506190903 14 290 27.4 43.5 0.00 0.23 0.23 30 1021.4
20260506190024 15 286 27.4 41.8 0.00 0.23 0.23 30 1021.3
20260506185403 14 288 24.1 41.8 0.00 0.23 0.23 29 1021.4
20260506184503 13 284 24.1 43.5 0.00 0.23 0.23 30 1021.4
20260506183603 13 278 29.0 45.1 0.00 0.23 0.23 30 1021.5
20260506182703 13 271 30.6 45.1 0.00 0.23 0.23 30 1021.6
20260506181803 13 275 29.0 45.1 0.00 0.23 0.23 32 1021.6
20260506180903 13 280 29.0 46.7 0.00 0.23 0.23 33 1021.4
20260506180003 12 279 27.4 46.7 0.00 0.23 0.23 31 1021.4
20260506175403 12 286 25.7 43.5 0.00 0.23 0.23 32 1021.3
20260506174524 12 283 32.2 48.3 0.00 0.23 0.23 33 1021.2
20260506173624 12 284 29.0 49.9 0.00 0.23 0.23 31 1021.3
20260506172703 12 276 32.2 48.3 0.00 0.23 0.23 31 1021.1
20260506171803 12 279 30.6 46.7 0.00 0.23 0.23 32 1020.9
20260506170903 12 285 30.6 51.5 0.00 0.23 0.23 32 1020.8
20260506170003 12 296 30.6 51.5 0.00 0.23 0.23 34 1020.6
20260506165403 12 293 30.6 46.7 0.00 0.23 0.23 38 1020.6
20260506164503 12 302 30.6 41.8 0.00 0.23 0.23 39 1020.5
20260506163624 11 290 27.4 49.9 0.00 0.23 0.23 39 1020.4
20260506162703 11 279 27.4 49.9 0.00 0.23 0.23 40 1020.3
20260506161803 11 287 27.4 49.9 0.00 0.23 0.23 41 1020.1
20260506160903 11 296 30.6 43.5 0.00 0.23 0.23 43 1020.0
20260506160025 11 280 30.6 46.7 0.00 0.23 0.23 43 1020.0
20260506155403 11 276 27.4 46.7 0.00 0.23 0.23 42 1019.9
20260506154503 11 293 25.7 40.2 0.00 0.23 0.23 49 1019.9
20260506153603 11 295 24.1 37.0 0.00 0.23 0.23 50 1019.7
20260506152724 11 293 24.1 37.0 0.00 0.23 0.23 50 1019.7
20260506151803 10 294 24.1 37.0 0.00 0.23 0.23 50 1019.5
20260506150924 10 292 24.1 40.2 0.00 0.23 0.23 51 1019.4
20260506150003 10 293 20.9 32.2 0.00 0.23 0.23 53 1019.4
20260506145403 10 284 12.9 25.7 0.00 0.23 0.23 54 1019.4
20260506144524 10 291 14.5 25.7 0.00 0.23 0.23 55 1019.2
20260506143603 9 282 14.5 25.7 0.00 0.23 0.23 55 1019.2
20260506142703 8 281 14.5 24.1 0.00 0.23 0.23 55 1019.2
20260506141803 8 280 17.7 25.7 0.00 0.23 0.23 55 1019.2
20260506140903 8 274 12.9 22.5 0.00 0.23 0.23 55 1019.1
20260506140003 8 270 12.9 17.7 0.00 0.23 0.23 55 1019.1
20260506135403 7 269 12.9 17.7 0.00 0.23 0.23 55 1019.0
20260506134503 7 271 9.7 17.7 0.00 0.23 0.23 55 1018.9
20260506133603 7 248 8.0 12.9 0.00 0.23 0.23 54 1018.9